CMP253 MUHA-MPTO

Flight info

Callsign CMP253
Flight time N/A
Altitude 35000
Route KAVUL6A UCL UG448 GCM UL465 EMASA/N0450F370 UL465 ARNAL DCT VUNIB OSUP2C RNAV RWY 2R USANI
Aircraft B738/L-SDE2E3FGHIRWXY/S

Departure

Time 2026-05-03 23:32
Airport José Martí International Airport (MUHA)

Arrival

Time N/A
Airport Tocumen International Airport (MPTO)
Time Latitude Longitude Altitude Speed Heading
2026-05-03 22:36 22.99636 -82.40641 218 ft 0 kts 302°
2026-05-03 23:17 22.99636 -82.40640 218 ft 0 kts 302°
2026-05-03 23:17 22.99635 -82.40639 218 ft 0 kts 302°
2026-05-03 23:17 22.99635 -82.40638 218 ft 0 kts 302°
2026-05-03 23:18 22.99627 -82.40624 221 ft 3 kts 302°
2026-05-03 23:18 22.99616 -82.40608 223 ft 3 kts 321°
2026-05-03 23:18 22.99600 -82.40596 219 ft 3 kts 311°
2026-05-03 23:18 22.99590 -82.40578 221 ft 3 kts 279°
2026-05-03 23:19 22.99591 -82.40557 221 ft 3 kts 248°
2026-05-03 23:19 22.99596 -82.40546 221 ft 0 kts 230°
2026-05-03 23:21 22.99593 -82.40550 221 ft 2 kts 224°
2026-05-03 23:21 22.99562 -82.40571 220 ft 8 kts 214°
2026-05-03 23:22 22.99448 -82.40731 220 ft 18 kts 235°
2026-05-03 23:22 22.99359 -82.40844 220 ft 21 kts 196°
2026-05-03 23:22 22.99238 -82.40778 225 ft 20 kts 172°
2026-05-03 23:23 22.99150 -82.40879 196 ft 19 kts 234°
2026-05-03 23:23 22.99071 -82.40995 220 ft 19 kts 233°
2026-05-03 23:23 22.98995 -82.41107 218 ft 18 kts 234°
2026-05-03 23:23 22.98924 -82.41217 222 ft 17 kts 235°
2026-05-03 23:24 22.98855 -82.41321 219 ft 17 kts 234°
2026-05-03 23:24 22.98787 -82.41422 220 ft 16 kts 234°
2026-05-03 23:24 22.98722 -82.41519 222 ft 16 kts 234°
2026-05-03 23:24 22.98660 -82.41612 221 ft 15 kts 234°
2026-05-03 23:25 22.98600 -82.41703 222 ft 14 kts 234°
2026-05-03 23:25 22.98544 -82.41790 224 ft 14 kts 234°
2026-05-03 23:25 22.98489 -82.41872 223 ft 13 kts 234°
2026-05-03 23:25 22.98437 -82.41951 218 ft 13 kts 234°
2026-05-03 23:26 22.98385 -82.42028 220 ft 12 kts 234°
2026-05-03 23:26 22.98336 -82.42103 221 ft 12 kts 234°
2026-05-03 23:26 22.98288 -82.42176 218 ft 12 kts 234°
2026-05-03 23:26 22.98240 -82.42247 221 ft 11 kts 233°
2026-05-03 23:27 22.98193 -82.42316 218 ft 11 kts 233°
2026-05-03 23:27 22.98164 -82.42359 218 ft 0 kts 233°
2026-05-03 23:27 22.98157 -82.42369 220 ft 5 kts 234°
2026-05-03 23:27 22.98134 -82.42404 220 ft 6 kts 234°
2026-05-03 23:28 22.98111 -82.42439 220 ft 6 kts 234°
2026-05-03 23:28 22.98088 -82.42473 223 ft 6 kts 234°
2026-05-03 23:28 22.98062 -82.42514 221 ft 8 kts 234°
2026-05-03 23:28 22.98018 -82.42559 218 ft 10 kts 203°
2026-05-03 23:29 22.97964 -82.42552 220 ft 0 kts 153°
2026-05-03 23:31 22.97923 -82.42523 218 ft 14 kts 137°
2026-05-03 23:31 22.97931 -82.42394 219 ft 27 kts 55°
2026-05-03 23:31 22.98179 -82.42024 219 ft 101 kts 54°
2026-05-03 23:31 22.98738 -82.41178 221 ft 172 kts 54°
2026-05-03 23:32 22.99468 -82.40043 923 ft 188 kts 53°
2026-05-03 23:32 23.00253 -82.38839 1814 ft 197 kts 57°
2026-05-03 23:32 23.01024 -82.37577 2608 ft 211 kts 65°
2026-05-03 23:32 23.01389 -82.36000 3049 ft 220 kts 87°
2026-05-03 23:33 23.01510 -82.34322 3506 ft 224 kts 86°
2026-05-03 23:33 23.01727 -82.32632 4012 ft 227 kts 81°
2026-05-03 23:33 23.02017 -82.30961 4513 ft 229 kts 80°
2026-05-03 23:33 23.02330 -82.29250 5011 ft 232 kts 79°
2026-05-03 23:34 23.02647 -82.27526 5513 ft 234 kts 79°
2026-05-03 23:34 23.02967 -82.25781 5972 ft 237 kts 79°
2026-05-03 23:34 23.03289 -82.24025 6029 ft 236 kts 79°
2026-05-03 23:34 23.03609 -82.22275 6028 ft 237 kts 79°
2026-05-03 23:35 23.03930 -82.20519 6034 ft 238 kts 79°
2026-05-03 23:35 23.04252 -82.18755 6032 ft 238 kts 79°
2026-05-03 23:35 23.04573 -82.16992 6024 ft 238 kts 79°
2026-05-03 23:35 23.04893 -82.15232 6021 ft 237 kts 79°
2026-05-03 23:36 23.05194 -82.13467 6018 ft 237 kts 84°
2026-05-03 23:36 23.05112 -82.11718 6004 ft 235 kts 111°
2026-05-03 23:36 23.04124 -82.10389 6010 ft 227 kts 154°
2026-05-03 23:36 23.02631 -82.09946 6033 ft 223 kts 172°
2026-05-03 23:37 23.01115 -82.09526 6023 ft 226 kts 164°
2026-05-03 23:37 22.99631 -82.08948 6230 ft 229 kts 162°
2026-05-03 23:37 22.98065 -82.08306 6375 ft 250 kts 161°
2026-05-03 23:37 22.96391 -82.07617 6600 ft 268 kts 161°
2026-05-03 23:38 22.94590 -82.06880 6900 ft 282 kts 161°
2026-05-03 23:38 22.92739 -82.06123 7539 ft 286 kts 161°
2026-05-03 23:38 22.90874 -82.05361 8338 ft 287 kts 161°
2026-05-03 23:38 22.88988 -82.04594 9084 ft 291 kts 161°
2026-05-03 23:39 22.87081 -82.03819 9789 ft 295 kts 161°
2026-05-03 23:39 22.85145 -82.03035 10394 ft 303 kts 161°
2026-05-03 23:39 22.83094 -82.02210 10541 ft 326 kts 161°
2026-05-03 23:39 22.80899 -82.01328 10752 ft 346 kts 161°
2026-05-03 23:40 22.78611 -82.00408 11219 ft 353 kts 161°
2026-05-03 23:40 22.76302 -81.99477 11879 ft 355 kts 161°
2026-05-03 23:40 22.73989 -81.98543 12557 ft 356 kts 161°
2026-05-03 23:40 22.71675 -81.97609 13169 ft 360 kts 162°
2026-05-03 23:41 22.69315 -81.96658 13767 ft 363 kts 162°
2026-05-03 23:41 22.66938 -81.95701 14313 ft 366 kts 162°
2026-05-03 23:41 22.64541 -81.94737 14835 ft 369 kts 162°
2026-05-03 23:41 22.62119 -81.93763 15353 ft 373 kts 162°
2026-05-03 23:42 22.59675 -81.92782 15862 ft 376 kts 162°
2026-05-03 23:42 22.57200 -81.91789 16373 ft 380 kts 162°
2026-05-03 23:42 22.55560 -81.91131 16709 ft 382 kts 162°
2026-05-03 23:42 22.53058 -81.90127 17215 ft 385 kts 162°
2026-05-03 23:43 22.50533 -81.89115 17710 ft 388 kts 162°
2026-05-03 23:43 22.47986 -81.88094 18207 ft 391 kts 163°
2026-05-03 23:43 22.45424 -81.87068 18626 ft 394 kts 163°
2026-05-03 23:43 22.42842 -81.86034 19041 ft 397 kts 163°
2026-05-03 23:44 22.40236 -81.84991 19450 ft 400 kts 163°
2026-05-03 23:44 22.37614 -81.83942 19867 ft 403 kts 163°
2026-05-03 23:44 22.34979 -81.82888 20267 ft 406 kts 163°
2026-05-03 23:44 22.32320 -81.81825 20665 ft 409 kts 163°
2026-05-03 23:45 22.29639 -81.80754 21077 ft 411 kts 163°
2026-05-03 23:45 22.26979 -81.79691 21465 ft 414 kts 163°
2026-05-03 23:45 22.24263 -81.78607 21833 ft 417 kts 163°
2026-05-03 23:45 22.21528 -81.77515 22214 ft 420 kts 163°
2026-05-03 23:46 22.18779 -81.76419 22608 ft 422 kts 163°
2026-05-03 23:46 22.16011 -81.75315 22977 ft 425 kts 163°
2026-05-03 23:46 22.13226 -81.74205 23329 ft 428 kts 163°
2026-05-03 23:46 22.10427 -81.73089 23668 ft 430 kts 163°
2026-05-03 23:47 22.07606 -81.71966 23975 ft 432 kts 163°
2026-05-03 23:47 22.04778 -81.70840 24280 ft 434 kts 163°
2026-05-03 23:47 22.01939 -81.69710 24586 ft 436 kts 163°
2026-05-03 23:47 21.99085 -81.68574 24875 ft 438 kts 163°
2026-05-03 23:48 21.96216 -81.67434 25168 ft 440 kts 163°
2026-05-03 23:48 21.93336 -81.66289 25472 ft 442 kts 163°
2026-05-03 23:48 21.90444 -81.65140 25758 ft 444 kts 163°
2026-05-03 23:48 21.87571 -81.63999 26017 ft 446 kts 163°
2026-05-03 23:49 21.84653 -81.62841 26280 ft 448 kts 163°
2026-05-03 23:49 21.81679 -81.61661 26582 ft 450 kts 163°
2026-05-03 23:49 21.78772 -81.60507 26852 ft 452 kts 163°
2026-05-03 23:49 21.75818 -81.59336 27115 ft 454 kts 163°
2026-05-03 23:50 21.72851 -81.58161 27378 ft 456 kts 163°
2026-05-03 23:50 21.69865 -81.56977 27646 ft 457 kts 163°
2026-05-03 23:50 21.66877 -81.55793 27898 ft 459 kts 163°
2026-05-03 23:50 21.63873 -81.54605 28144 ft 461 kts 163°
2026-05-03 23:51 21.60850 -81.53427 28371 ft 462 kts 165°
2026-05-03 23:51 21.57769 -81.52445 28613 ft 461 kts 171°
2026-05-03 23:51 21.54625 -81.51798 28842 ft 459 kts 178°
2026-05-03 23:51 21.51451 -81.51581 29074 ft 456 kts 184°
2026-05-03 23:52 21.48288 -81.51638 29352 ft 455 kts 186°
2026-05-03 23:52 21.45114 -81.51753 29568 ft 457 kts 186°
2026-05-03 23:52 21.41956 -81.51811 29755 ft 460 kts 184°
2026-05-03 23:52 21.38750 -81.51769 30028 ft 461 kts 182°
2026-05-03 23:53 21.35552 -81.51631 30365 ft 459 kts 181°
2026-05-03 23:53 21.32366 -81.51417 30679 ft 458 kts 180°
2026-05-03 23:53 21.29176 -81.51164 30882 ft 459 kts 180°
2026-05-03 23:53 21.25978 -81.50903 31048 ft 461 kts 180°
2026-05-03 23:54 21.22778 -81.50648 31288 ft 461 kts 180°
2026-05-03 23:54 21.19586 -81.50404 31597 ft 459 kts 180°
2026-05-03 23:54 21.16393 -81.50169 31875 ft 458 kts 180°
2026-05-03 23:54 21.13205 -81.49942 32073 ft 460 kts 181°
2026-05-03 23:55 21.10008 -81.49719 32277 ft 460 kts 181°
2026-05-03 23:55 21.06854 -81.49501 32547 ft 460 kts 181°
2026-05-03 23:55 21.03666 -81.49279 32850 ft 458 kts 181°
2026-05-03 23:55 21.00486 -81.49058 33113 ft 458 kts 181°
2026-05-03 23:56 20.97302 -81.48836 33318 ft 459 kts 181°
2026-05-03 23:56 20.94113 -81.48614 33526 ft 459 kts 181°
2026-05-03 23:56 20.90928 -81.48392 33803 ft 458 kts 181°
2026-05-03 23:56 20.87746 -81.48170 34083 ft 457 kts 181°
2026-05-03 23:57 20.84570 -81.47948 34277 ft 457 kts 181°
2026-05-03 23:57 20.81397 -81.47727 34485 ft 456 kts 181°
2026-05-03 23:57 20.78225 -81.47505 34732 ft 455 kts 181°
2026-05-03 23:57 20.75066 -81.47284 34982 ft 453 kts 181°
2026-05-03 23:58 20.68770 -81.46848 35012 ft 457 kts 181°
2026-05-03 23:58 20.62426 -81.46407 35007 ft 454 kts 181°
2026-05-03 23:59 20.56123 -81.45967 35007 ft 452 kts 181°
2026-05-03 23:59 20.49861 -81.45532 35006 ft 450 kts 181°
2026-05-04 00:00 20.43623 -81.45100 35028 ft 449 kts 181°
2026-05-04 00:00 20.37427 -81.44671 35004 ft 450 kts 181°
2026-05-04 00:01 20.31175 -81.44239 35016 ft 451 kts 181°
2026-05-04 00:01 20.24902 -81.43805 35017 ft 453 kts 181°
2026-05-04 00:02 20.18593 -81.43369 35015 ft 455 kts 181°
2026-05-04 00:02 20.12288 -81.42933 35015 ft 457 kts 181°
2026-05-04 00:03 20.05923 -81.42493 35018 ft 459 kts 181°
2026-05-04 00:03 19.99532 -81.42052 35007 ft 460 kts 181°
2026-05-04 00:04 19.93128 -81.41611 35014 ft 461 kts 181°
2026-05-04 00:04 19.86719 -81.41169 35015 ft 461 kts 181°
2026-05-04 00:05 19.80312 -81.40728 35020 ft 461 kts 181°
2026-05-04 00:05 19.73916 -81.40288 35014 ft 460 kts 181°
2026-05-04 00:06 19.67560 -81.39851 35013 ft 459 kts 181°
2026-05-04 00:06 19.61186 -81.39413 35008 ft 458 kts 181°
2026-05-04 00:07 19.54832 -81.38978 35003 ft 457 kts 181°
2026-05-04 00:07 19.48495 -81.38543 35001 ft 456 kts 181°
2026-05-04 00:08 19.42152 -81.38109 34994 ft 455 kts 181°
2026-05-04 00:08 19.35861 -81.37678 34994 ft 455 kts 181°
2026-05-04 00:09 19.29543 -81.37246 34995 ft 455 kts 180°
2026-05-04 00:09 19.23214 -81.36532 34989 ft 458 kts 176°
2026-05-04 00:10 19.16916 -81.35355 35001 ft 460 kts 173°
2026-05-04 00:10 19.10671 -81.34013 35003 ft 461 kts 173°
2026-05-04 00:11 19.04360 -81.32765 35000 ft 461 kts 174°
2026-05-04 00:11 18.98033 -81.31605 35013 ft 461 kts 174°
2026-05-04 00:12 18.91700 -81.30472 35005 ft 462 kts 174°
2026-05-04 00:12 18.85354 -81.29336 35015 ft 462 kts 174°
2026-05-04 00:13 18.79041 -81.28202 35007 ft 463 kts 174°
2026-05-04 00:13 18.72687 -81.27059 35011 ft 463 kts 174°
2026-05-04 00:14 18.66333 -81.25916 35008 ft 463 kts 174°
2026-05-04 00:14 18.59974 -81.24774 35003 ft 464 kts 174°
2026-05-04 00:15 18.53606 -81.23631 35012 ft 463 kts 174°
2026-05-04 00:15 18.47239 -81.22489 35001 ft 464 kts 174°
2026-05-04 00:16 18.40877 -81.21349 35005 ft 463 kts 174°
2026-05-04 00:16 18.34514 -81.20210 34999 ft 463 kts 174°
2026-05-04 00:17 18.28156 -81.19072 35000 ft 463 kts 174°
2026-05-04 00:17 18.21845 -81.17944 34998 ft 463 kts 174°
2026-05-04 00:18 18.15479 -81.16806 34997 ft 463 kts 174°
2026-05-04 00:18 18.09125 -81.15672 35002 ft 463 kts 174°
2026-05-04 00:19 18.02762 -81.14537 34997 ft 463 kts 174°
2026-05-04 00:19 17.96413 -81.13405 35003 ft 463 kts 173°
2026-05-04 00:20 17.90099 -81.12280 34992 ft 463 kts 173°
2026-05-04 00:20 17.83747 -81.11150 34996 ft 463 kts 173°
2026-05-04 00:21 17.77397 -81.10020 34993 ft 463 kts 173°
2026-05-04 00:21 17.71048 -81.08891 34996 ft 463 kts 173°
2026-05-04 00:22 17.64698 -81.07764 34995 ft 463 kts 173°
2026-05-04 00:22 17.58339 -81.06635 34992 ft 463 kts 173°
2026-05-04 00:23 17.51990 -81.05509 34998 ft 463 kts 173°
2026-05-04 00:23 17.45680 -81.04390 34990 ft 463 kts 173°
2026-05-04 00:24 17.39328 -81.03265 34997 ft 462 kts 173°
2026-05-04 00:24 17.32977 -81.02141 34985 ft 463 kts 173°
2026-05-04 00:25 17.26626 -81.01017 34992 ft 462 kts 173°
2026-05-04 00:25 17.20308 -80.99901 34988 ft 462 kts 173°
2026-05-04 00:26 17.13963 -80.98780 34989 ft 462 kts 173°
2026-05-04 00:26 17.07626 -80.97661 34989 ft 461 kts 173°
2026-05-04 00:27 17.01293 -80.96544 34983 ft 461 kts 173°
2026-05-04 00:27 16.94967 -80.95429 34993 ft 460 kts 173°
2026-05-04 00:28 16.89719 -80.94505 34982 ft 460 kts 173°
2026-05-04 00:28 16.82381 -80.93213 34988 ft 459 kts 173°
2026-05-04 00:29 16.77106 -80.92285 34986 ft 459 kts 173°
2026-05-04 00:29 16.70819 -80.91180 34985 ft 458 kts 173°
2026-05-04 00:30 16.64532 -80.90075 34986 ft 457 kts 173°
2026-05-04 00:30 16.58293 -80.88980 34983 ft 457 kts 173°
2026-05-04 00:31 16.52028 -80.87880 34988 ft 456 kts 173°
2026-05-04 00:31 16.45768 -80.86783 34976 ft 456 kts 173°
2026-05-04 00:32 16.39516 -80.85687 34988 ft 455 kts 173°
2026-05-04 00:32 16.33270 -80.84593 34982 ft 455 kts 173°
2026-05-04 00:33 16.23899 -80.82954 34983 ft 454 kts 173°
2026-05-04 00:34 16.17660 -80.81863 34984 ft 454 kts 173°
2026-05-04 00:34 16.11467 -80.80781 34974 ft 454 kts 173°
2026-05-04 00:35 16.05223 -80.79690 34978 ft 454 kts 173°
2026-05-04 00:35 15.98984 -80.78601 34980 ft 455 kts 173°
2026-05-04 00:36 15.92740 -80.77513 34986 ft 455 kts 173°
2026-05-04 00:36 15.86491 -80.76424 34975 ft 455 kts 173°
2026-05-04 00:37 15.80234 -80.75335 34980 ft 456 kts 173°
2026-05-04 00:37 15.74020 -80.74253 34981 ft 456 kts 173°
2026-05-04 00:38 15.67755 -80.73163 34976 ft 456 kts 173°
2026-05-04 00:38 15.61494 -80.72075 34977 ft 456 kts 173°
2026-05-04 00:39 15.55229 -80.70986 34978 ft 456 kts 173°
2026-05-04 00:39 15.48968 -80.69899 34973 ft 456 kts 173°
2026-05-04 00:40 15.42712 -80.68813 34972 ft 455 kts 173°
2026-05-04 00:40 15.36492 -80.67734 34970 ft 455 kts 173°
2026-05-04 00:41 15.30244 -80.66651 34966 ft 455 kts 173°
2026-05-04 00:41 15.23996 -80.65569 34974 ft 455 kts 173°
2026-05-04 00:42 15.17755 -80.64488 34973 ft 454 kts 173°
2026-05-04 00:42 15.11521 -80.63409 34971 ft 454 kts 172°
2026-05-04 00:43 15.05331 -80.62339 34973 ft 454 kts 172°
2026-05-04 00:43 14.99106 -80.61242 34972 ft 454 kts 171°
2026-05-04 00:44 14.92947 -80.59780 34974 ft 454 kts 168°
2026-05-04 00:44 14.86814 -80.58143 34956 ft 455 kts 167°
2026-05-04 00:45 14.80675 -80.56529 34968 ft 454 kts 168°
2026-05-04 00:45 14.74538 -80.54958 34964 ft 454 kts 168°
2026-05-04 00:46 14.68398 -80.53405 34966 ft 454 kts 168°
2026-05-04 00:46 14.62256 -80.51854 34967 ft 454 kts 168°
2026-05-04 00:47 14.56112 -80.50302 34955 ft 454 kts 168°
2026-05-04 00:47 14.49969 -80.48750 34964 ft 454 kts 168°
2026-05-04 00:48 14.43863 -80.47207 34964 ft 454 kts 168°
2026-05-04 00:48 14.37724 -80.45657 34966 ft 454 kts 168°
2026-05-04 00:49 14.31580 -80.44107 34964 ft 454 kts 168°
2026-05-04 00:49 14.25436 -80.42558 34956 ft 454 kts 168°
2026-05-04 00:50 14.19295 -80.41011 34956 ft 454 kts 168°
2026-05-04 00:50 14.13187 -80.39472 34958 ft 454 kts 168°
2026-05-04 00:51 14.07053 -80.37928 34966 ft 453 kts 168°
2026-05-04 00:51 14.00917 -80.36385 34957 ft 453 kts 168°
2026-05-04 00:52 13.94793 -80.34844 34969 ft 453 kts 168°
2026-05-04 00:52 13.88706 -80.33315 34949 ft 453 kts 168°